DW4691 Weather Reports


Display with metric or nautical units.
time (UTC)temp
F
wind
direction
speed
MPH
gust
MPH
rain 1hr
in
rain 24hr
in
rain mn
in
humidity
%
barometer
mb
20240521031538 80 0 0.0 0.0 0.00 0.00 0.00 81 1010.4
20240521030043 80 0 0.0 0.0 0.00 0.00 0.00 79 1010.7
20240521024542 80 0 0.0 0.0 0.00 0.00 0.00 78 1010.3
20240521023041 81 0 0.0 0.0 0.00 0.00 0.00 77 1010.1
20240521021538 81 0 0.0 2.0 0.00 0.00 0.00 75 1009.9
20240521020043 82 0 0.0 4.0 0.00 0.00 0.00 74 1009.9
20240521014546 82 0 0.0 2.0 0.00 0.00 0.00 71 1009.9
20240521013042 83 0 0.0 4.0 0.00 0.00 0.00 68 1009.8
20240521011538 83 0 0.0 2.0 0.00 0.00 0.00 67 1009.9
20240521010048 84 0 0.0 2.0 0.00 0.00 0.00 66 1009.6
20240521004538 85 0 0.0 1.0 0.00 0.00 0.00 65 1009.4
20240521003039 85 0 0.0 1.0 0.00 0.00 0.00 64 1009.4
20240521001553 86 0 0.0 0.0 0.00 0.00 0.00 63 1009.1
20240521000101 87 0 0.0 2.0 0.00 0.00 0.00 61 1008.9
20240520234536 87 0 0.0 0.0 0.00 0.00 0.00 61 1008.9
20240520233037 88 0 0.0 4.0 0.00 0.00 0.00 60 1008.9
20240520231540 89 0 0.0 5.0 0.00 0.00 0.00 59 1008.9
20240520230040 90 0 0.0 4.0 0.00 0.00 0.00 58 1008.9
20240520224544 90 0 0.0 4.0 0.00 0.00 0.00 58 1009.0
20240520223041 90 0 0.0 2.0 0.00 0.00 0.00 58 1009.1
20240520221538 91 0 0.0 4.0 0.00 0.00 0.00 58 1009.1
20240520220110 90 0 0.0 3.0 0.00 0.00 0.00 60 1009.3
20240520214559 91 0 0.0 3.0 0.00 0.00 0.00 56 1009.3
20240520213038 91 0 0.0 3.0 0.00 0.00 0.00 58 1009.5
20240520211543 92 0 0.0 3.0 0.00 0.00 0.00 55 1009.8
20240520210039 93 0 0.0 2.0 0.00 0.00 0.00 47 1009.7
20240520204551 94 0 0.0 3.0 0.00 0.00 0.00 47 1010.1
20240520203038 95 0 0.0 1.0 0.00 0.00 0.00 47 1010.4
20240520201542 94 0 0.0 3.0 0.00 0.00 0.00 45 1010.5
20240520200038 93 0 0.0 0.0 0.00 0.00 0.00 46 1010.8
20240520194543 93 0 0.0 3.0 0.00 0.00 0.00 49 1011.0
20240520193046 92 0 0.0 3.0 0.00 0.00 0.00 48 1011.2
20240520191540 92 0 0.0 0.0 0.00 0.00 0.00 57 1011.3
20240520190047 91 0 0.0 1.0 0.00 0.00 0.00 53 1011.4
20240520184545 90 0 0.0 0.0 0.00 0.00 0.00 58 1011.6
20240520183035 90 0 0.0 2.0 0.00 0.00 0.00 58 1011.7
20240520181538 89 0 0.0 0.0 0.00 0.00 0.00 59 1011.8
20240520180037 90 0 0.0 2.0 0.00 0.00 0.00 57 1012.0
20240520174536 89 0 0.0 1.0 0.00 0.00 0.00 60 1012.1
20240520173037 88 0 0.0 4.0 0.00 0.00 0.00 61 1012.2
20240520171542 89 0 0.0 0.0 0.00 0.00 0.00 58 1012.3
20240520170105 89 0 0.0 2.0 0.00 0.00 0.00 63 1012.2
20240520164536 88 0 0.0 2.0 0.00 0.00 0.00 61 1012.3
20240520163045 87 0 0.0 0.0 0.00 0.00 0.00 68 1012.3
20240520161541 86 0 0.0 0.0 0.00 0.00 0.00 68 1012.5
20240520160049 86 0 0.0 0.0 0.00 0.00 0.00 69 1012.2
20240520154559 85 0 0.0 2.0 0.00 0.00 0.00 71 1012.2
20240520153047 85 0 0.0 0.0 0.00 0.00 0.00 74 1012.1
20240520151541 85 0 0.0 0.0 0.00 0.00 0.00 71 1012.2
20240520150040 84 0 0.0 0.0 0.00 0.00 0.00 76 1012.4
20240520144537 82 0 0.0 2.0 0.00 0.00 0.00 77 1012.2
20240520143043 82 0 0.0 0.0 0.00 0.00 0.00 80 1011.8
20240520141543 80 0 0.0 6.0 0.00 0.00 0.00 81 1011.7
20240520140041 79 0 0.0 1.0 0.00 0.00 0.00 87 1011.7
20240520134537 77 0 0.0 3.0 0.00 0.00 0.00 90 1011.5
20240520133037 75 0 0.0 0.0 0.00 0.00 0.00 93 1011.7
20240520131541 74 0 0.0 0.0 0.00 0.00 0.00 94 1011.7
20240520130042 73 0 0.0 0.0 0.00 0.00 0.00 94 1011.7
20240520124543 72 0 0.0 0.0 0.00 0.00 0.00 95 1011.6
20240520123311 71 0 0.0 0.0 0.00 0.00 0.00 94 1011.4
20240520121537 70 0 0.0 0.0 0.00 0.00 0.00 94 1011.2
20240520120044 69 0 0.0 0.0 0.00 0.00 0.00 93 1010.9